contact: severine.martini@mio.osupytheas.fr, dominique.lefevre@mio.osupytheas.fr
Project:EMSO Ligure-ouest http://www.emso-fr.org/EMSO-France
Sensor Microcat Sea-Bird SBE37 SMP,  Serial 57510 
DOI : "https://doi.org/10.17882/97948" 
Title:EMSO Ligure Ouest : Data Bathybot capteur Microcat - deploiement 2023-04-28
Datetime,Profondeur,Latitude,Longitude,Temperature,Conductivite,Pression,Salinite
time,m,degree_north,degree_east,degree_C,S/m,db,PSU 
2023-11-24T00:00:49,2420,42.8014,5.9826,13.2974,4.36354,2453.559,36.2740
2023-11-24T00:03:49,2420,42.8014,5.9826,13.2978,4.36315,2453.559,36.2700
2023-11-24T00:06:49,2420,42.8014,5.9826,13.2977,4.36242,2453.551,36.2633
2023-11-24T00:09:49,2420,42.8014,5.9826,13.2975,4.36303,2453.559,36.2692
2023-11-24T00:12:49,2420,42.8014,5.9826,13.2978,4.36455,2453.559,36.2831
2023-11-24T00:15:49,2420,42.8014,5.9826,13.2976,4.36283,2453.559,36.2672
2023-11-24T00:18:49,2420,42.8014,5.9826,13.2976,4.36235,2453.559,36.2628
2023-11-24T00:21:49,2420,42.8014,5.9826,13.2973,4.36158,2453.559,36.2558
2023-11-24T00:24:49,2420,42.8014,5.9826,13.2975,4.36333,2453.544,36.2720
2023-11-24T00:27:49,2420,42.8014,5.9826,13.2972,4.36329,2453.559,36.2719
2023-11-24T00:30:49,2420,42.8014,5.9826,13.2975,4.36389,2453.582,36.2772
2023-11-24T00:33:49,2420,42.8014,5.9826,13.2975,4.36178,2453.582,36.2575
2023-11-24T00:36:49,2420,42.8014,5.9826,13.2978,4.36263,2453.582,36.2652
2023-11-24T00:39:49,2420,42.8014,5.9826,13.2973,4.36424,2453.582,36.2807
2023-11-24T00:42:49,2420,42.8014,5.9826,13.2978,4.36334,2453.582,36.2717
2023-11-24T00:45:49,2420,42.8014,5.9826,13.2974,4.36345,2453.559,36.2732
2023-11-24T00:48:49,2420,42.8014,5.9826,13.2977,4.36264,2453.582,36.2654
2023-11-24T00:51:49,2420,42.8014,5.9826,13.2978,4.36334,2453.582,36.2719
2023-11-24T00:54:49,2420,42.8014,5.9826,13.2975,4.36306,2453.559,36.2695
2023-11-24T00:57:49,2420,42.8014,5.9826,13.2978,4.36303,2453.582,36.2689
2023-11-24T01:00:49,2420,42.8014,5.9826,13.2975,4.36345,2453.604,36.2731
2023-11-24T01:03:49,2420,42.8014,5.9826,13.2974,4.36275,2453.582,36.2666
2023-11-24T01:06:49,2420,42.8014,5.9826,13.2972,4.36348,2453.582,36.2736
2023-11-24T01:09:49,2420,42.8014,5.9826,13.2978,4.36439,2453.582,36.2816
2023-11-24T01:12:49,2420,42.8014,5.9826,13.2977,4.36326,2453.604,36.2711
2023-11-24T01:15:49,2420,42.8014,5.9826,13.2976,4.36368,2453.582,36.2751
2023-11-24T01:18:49,2420,42.8014,5.9826,13.2975,4.36186,2453.582,36.2582
2023-11-24T01:21:49,2420,42.8014,5.9826,13.2973,4.36243,2453.619,36.2637
2023-11-24T01:24:49,2420,42.8014,5.9826,13.2972,4.36212,2453.604,36.2609
2023-11-24T01:27:49,2420,42.8014,5.9826,13.2972,4.36353,2453.604,36.2742
2023-11-24T01:30:49,2420,42.8014,5.9826,13.2977,4.36259,2453.627,36.2648
2023-11-24T01:33:49,2420,42.8014,5.9826,13.2976,4.36238,2453.604,36.2630
2023-11-24T01:36:49,2420,42.8014,5.9826,13.2976,4.36263,2453.612,36.2653
2023-11-24T01:39:49,2420,42.8014,5.9826,13.2977,4.36271,2453.582,36.2660
2023-11-24T01:42:49,2420,42.8014,5.9826,13.2976,4.36407,2453.604,36.2788
2023-11-24T01:45:49,2420,42.8014,5.9826,13.2975,4.36286,2453.619,36.2676
2023-11-24T01:48:49,2420,42.8014,5.9826,13.2975,4.36214,2453.627,36.2608
2023-11-24T01:51:49,2420,42.8014,5.9826,13.2973,4.36357,2453.604,36.2744
2023-11-24T01:54:49,2420,42.8014,5.9826,13.2976,4.36249,2453.604,36.2640
2023-11-24T01:57:49,2420,42.8014,5.9826,13.2975,4.36321,2453.590,36.2709
2023-11-24T02:00:49,2420,42.8014,5.9826,13.2979,4.36328,2453.649,36.2711
2023-11-24T02:03:49,2420,42.8014,5.9826,13.2978,4.36282,2453.627,36.2669
2023-11-24T02:06:49,2420,42.8014,5.9826,13.2972,4.36212,2453.604,36.2609
2023-11-24T02:09:49,2420,42.8014,5.9826,13.2978,4.36259,2453.604,36.2647
2023-11-24T02:12:49,2420,42.8014,5.9826,13.2976,4.36272,2453.627,36.2661
2023-11-24T02:15:49,2420,42.8014,5.9826,13.2970,4.36315,2453.664,36.2707
2023-11-24T02:18:49,2420,42.8014,5.9826,13.2975,4.36358,2453.627,36.2744
2023-11-24T02:21:49,2420,42.8014,5.9826,13.2975,4.36403,2453.612,36.2786
2023-11-24T02:24:49,2420,42.8014,5.9826,13.2974,4.36373,2453.649,36.2758
2023-11-24T02:27:49,2420,42.8014,5.9826,13.2978,4.36265,2453.627,36.2654
2023-11-24T02:30:50,2420,42.8014,5.9826,13.2978,4.36191,2453.649,36.2584
2023-11-24T02:33:49,2420,42.8014,5.9826,13.2973,4.36380,2453.635,36.2765
2023-11-24T02:36:49,2420,42.8014,5.9826,13.2975,4.36354,2453.649,36.2739
2023-11-24T02:39:49,2420,42.8014,5.9826,13.2972,4.36296,2453.649,36.2688
2023-11-24T02:42:49,2420,42.8014,5.9826,13.2975,4.36315,2453.649,36.2702
2023-11-24T02:45:49,2420,42.8014,5.9826,13.2974,4.36439,2453.635,36.2819
2023-11-24T02:48:49,2420,42.8014,5.9826,13.2977,4.36388,2453.649,36.2769
2023-11-24T02:51:49,2420,42.8014,5.9826,13.2973,4.36226,2453.649,36.2621
2023-11-24T02:54:49,2420,42.8014,5.9826,13.2977,4.36354,2453.649,36.2738
2023-11-24T02:57:49,2420,42.8014,5.9826,13.2975,4.36215,2453.649,36.2608
2023-11-24T03:00:49,2420,42.8014,5.9826,13.2975,4.36372,2453.649,36.2756
2023-11-24T03:03:49,2420,42.8014,5.9826,13.2975,4.36259,2453.672,36.2650
2023-11-24T03:06:49,2420,42.8014,5.9826,13.2974,4.36309,2453.649,36.2698
2023-11-24T03:09:49,2420,42.8014,5.9826,13.2978,4.36226,2453.695,36.2617
2023-11-24T03:12:49,2420,42.8014,5.9826,13.2977,4.36295,2453.672,36.2682
2023-11-24T03:15:49,2420,42.8014,5.9826,13.2975,4.36116,2453.695,36.2517
2023-11-24T03:18:49,2420,42.8014,5.9826,13.2980,4.36346,2453.672,36.2727
2023-11-24T03:21:49,2420,42.8014,5.9826,13.2977,4.36392,2453.672,36.2773
2023-11-24T03:24:49,2420,42.8014,5.9826,13.2975,4.36406,2453.635,36.2788
2023-11-24T03:27:49,2420,42.8014,5.9826,13.2975,4.36270,2453.672,36.2660
2023-11-24T03:30:49,2420,42.8014,5.9826,13.2977,4.36293,2453.672,36.2681
2023-11-24T03:33:49,2420,42.8014,5.9826,13.2975,4.36185,2453.695,36.2581
2023-11-24T03:36:49,2420,42.8014,5.9826,13.2975,4.36353,2453.672,36.2739
2023-11-24T03:39:49,2420,42.8014,5.9826,13.2975,4.36299,2453.672,36.2688
2023-11-24T03:42:49,2420,42.8014,5.9826,13.2977,4.36310,2453.649,36.2696
2023-11-24T03:45:49,2420,42.8014,5.9826,13.2978,4.36347,2453.635,36.2729
2023-11-24T03:48:49,2420,42.8014,5.9826,13.2972,4.36304,2453.680,36.2695
2023-11-24T03:51:49,2420,42.8014,5.9826,13.2976,4.36347,2453.695,36.2731
2023-11-24T03:54:49,2420,42.8014,5.9826,13.2974,4.36353,2453.672,36.2739
2023-11-24T03:57:49,2420,42.8014,5.9826,13.2975,4.36221,2453.657,36.2615
2023-11-24T04:00:49,2420,42.8014,5.9826,13.2976,4.36102,2453.672,36.2503
2023-11-24T04:03:49,2420,42.8014,5.9826,13.2973,4.36271,2453.672,36.2664
2023-11-24T04:06:49,2420,42.8014,5.9826,13.2975,4.36323,2453.695,36.2710
2023-11-24T04:09:49,2420,42.8014,5.9826,13.2975,4.36436,2453.672,36.2815
2023-11-24T04:12:49,2420,42.8014,5.9826,13.2973,4.36203,2453.672,36.2599
2023-11-24T04:15:49,2420,42.8014,5.9826,13.2976,4.36280,2453.732,36.2669
2023-11-24T04:18:49,2420,42.8014,5.9826,13.2970,4.36236,2453.672,36.2633
2023-11-24T04:21:49,2420,42.8014,5.9826,13.2975,4.36223,2453.657,36.2616
2023-11-24T04:24:49,2420,42.8014,5.9826,13.2973,4.36223,2453.695,36.2617
2023-11-24T04:27:50,2420,42.8014,5.9826,13.2975,4.36160,2453.695,36.2557
2023-11-24T04:30:49,2420,42.8014,5.9826,13.2974,4.36256,2453.672,36.2649
2023-11-24T04:33:49,2420,42.8014,5.9826,13.2973,4.36325,2453.695,36.2713
2023-11-24T04:36:49,2420,42.8014,5.9826,13.2975,4.36375,2453.709,36.2759
2023-11-24T04:39:49,2420,42.8014,5.9826,13.2974,4.36368,2453.672,36.2753
2023-11-24T04:42:49,2420,42.8014,5.9826,13.2974,4.36163,2453.672,36.2561
2023-11-24T04:45:49,2420,42.8014,5.9826,13.2978,4.36247,2453.672,36.2637
2023-11-24T04:48:49,2420,42.8014,5.9826,13.2973,4.36290,2453.635,36.2681
2023-11-24T04:51:49,2420,42.8014,5.9826,13.2979,4.36287,2453.680,36.2673
2023-11-24T04:54:50,2420,42.8014,5.9826,13.2973,4.36228,2453.695,36.2622
2023-11-24T04:57:49,2420,42.8014,5.9826,13.2973,4.36144,2453.695,36.2545
2023-11-24T05:00:49,2420,42.8014,5.9826,13.2975,4.36200,2453.695,36.2595
2023-11-24T05:03:49,2420,42.8014,5.9826,13.2974,4.36339,2453.680,36.2726
2023-11-24T05:06:49,2420,42.8014,5.9826,13.2973,4.36283,2453.695,36.2674
2023-11-24T05:09:49,2420,42.8014,5.9826,13.2974,4.36190,2453.672,36.2586
2023-11-24T05:12:49,2420,42.8014,5.9826,13.2975,4.36217,2453.695,36.2612
2023-11-24T05:15:49,2420,42.8014,5.9826,13.2973,4.36278,2453.664,36.2670
2023-11-24T05:18:49,2420,42.8014,5.9826,13.2977,4.36348,2453.672,36.2731
2023-11-24T05:21:49,2420,42.8014,5.9826,13.2973,4.36325,2453.717,36.2713
2023-11-24T05:24:49,2420,42.8014,5.9826,13.2973,4.36211,2453.672,36.2607
2023-11-24T05:27:49,2420,42.8014,5.9826,13.2970,4.36128,2453.680,36.2532
2023-11-24T05:30:50,2420,42.8014,5.9826,13.2974,4.36291,2453.687,36.2681
2023-11-24T05:33:49,2420,42.8014,5.9826,13.2970,4.36235,2453.672,36.2632
2023-11-24T05:36:49,2420,42.8014,5.9826,13.2968,4.36236,2453.672,36.2635
2023-11-24T05:39:49,2420,42.8014,5.9826,13.2975,4.36212,2453.695,36.2606
2023-11-24T05:42:49,2420,42.8014,5.9826,13.2975,4.36188,2453.672,36.2583
2023-11-24T05:45:49,2420,42.8014,5.9826,13.2973,4.36336,2453.649,36.2724
2023-11-24T05:48:49,2420,42.8014,5.9826,13.2973,4.36274,2453.680,36.2665
2023-11-24T05:51:49,2420,42.8014,5.9826,13.2973,4.36217,2453.635,36.2613
2023-11-24T05:54:49,2420,42.8014,5.9826,13.2971,4.36209,2453.680,36.2607
2023-11-24T05:57:49,2420,42.8014,5.9826,13.2970,4.36248,2453.672,36.2645
2023-11-24T06:00:50,2420,42.8014,5.9826,13.2976,4.36220,2453.687,36.2612
2023-11-24T06:03:49,2420,42.8014,5.9826,13.2972,4.36135,2453.695,36.2537
2023-11-24T06:06:49,2420,42.8014,5.9826,13.2972,4.36050,2453.672,36.2457
2023-11-24T06:09:49,2420,42.8014,5.9826,13.2971,4.36197,2453.627,36.2596
2023-11-24T06:12:49,2420,42.8014,5.9826,13.2971,4.36276,2453.657,36.2670
2023-11-24T06:15:49,2420,42.8014,5.9826,13.2975,4.36186,2453.672,36.2582
2023-11-24T06:18:49,2420,42.8014,5.9826,13.2975,4.36227,2453.649,36.2621
2023-11-24T06:21:49,2420,42.8014,5.9826,13.2970,4.36201,2453.672,36.2601
2023-11-24T06:24:49,2420,42.8014,5.9826,13.2975,4.36152,2453.649,36.2550
2023-11-24T06:27:49,2420,42.8014,5.9826,13.2970,4.36217,2453.649,36.2616
2023-11-24T06:30:49,2420,42.8014,5.9826,13.2973,4.36212,2453.687,36.2608
2023-11-24T06:33:49,2420,42.8014,5.9826,13.2975,4.36214,2453.672,36.2608
2023-11-24T06:36:49,2420,42.8014,5.9826,13.2974,4.36124,2453.672,36.2525
2023-11-24T06:39:49,2420,42.8014,5.9826,13.2972,4.36158,2453.635,36.2559
2023-11-24T06:42:49,2420,42.8014,5.9826,13.2971,4.36182,2453.612,36.2582
2023-11-24T06:45:49,2420,42.8014,5.9826,13.2973,4.36135,2453.649,36.2536
2023-11-24T06:48:49,2420,42.8014,5.9826,13.2972,4.36175,2453.649,36.2574
2023-11-24T06:51:49,2420,42.8014,5.9826,13.2973,4.36002,2453.649,36.2411
2023-11-24T06:54:49,2420,42.8014,5.9826,13.2970,4.36176,2453.672,36.2578
2023-11-24T06:57:49,2420,42.8014,5.9826,13.2971,4.36175,2453.635,36.2576
2023-11-24T07:00:50,2420,42.8014,5.9826,13.2973,4.36204,2453.641,36.2601
2023-11-24T07:03:49,2420,42.8014,5.9826,13.2973,4.36181,2453.641,36.2579
2023-11-24T07:06:49,2420,42.8014,5.9826,13.2973,4.36097,2453.627,36.2501
2023-11-24T07:09:49,2420,42.8014,5.9826,13.2971,4.36121,2453.649,36.2525
2023-11-24T07:12:49,2420,42.8014,5.9826,13.2972,4.36147,2453.672,36.2549
2023-11-24T07:15:49,2420,42.8014,5.9826,13.2973,4.36187,2453.649,36.2584
2023-11-24T07:18:49,2420,42.8014,5.9826,13.2975,4.36179,2453.635,36.2575
2023-11-24T07:21:49,2420,42.8014,5.9826,13.2970,4.36159,2453.627,36.2562
2023-11-24T07:24:49,2420,42.8014,5.9826,13.2973,4.36190,2453.627,36.2588
2023-11-24T07:27:49,2420,42.8014,5.9826,13.2975,4.36178,2453.649,36.2574
2023-11-24T07:30:49,2420,42.8014,5.9826,13.2973,4.36126,2453.612,36.2528
2023-11-24T07:33:49,2420,42.8014,5.9826,13.2970,4.36090,2453.627,36.2497
2023-11-24T07:36:49,2420,42.8014,5.9826,13.2969,4.36215,2453.627,36.2615
2023-11-24T07:39:49,2420,42.8014,5.9826,13.2970,4.36210,2453.627,36.2609
2023-11-24T07:42:49,2420,42.8014,5.9826,13.2971,4.36097,2453.649,36.2502
2023-11-24T07:45:49,2420,42.8014,5.9826,13.2975,4.36175,2453.627,36.2572
2023-11-24T07:48:49,2420,42.8014,5.9826,13.2974,4.36076,2453.612,36.2481
2023-11-24T07:51:49,2420,42.8014,5.9826,13.2973,4.36072,2453.635,36.2478
2023-11-24T07:54:49,2420,42.8014,5.9826,13.2972,4.36073,2453.649,36.2479
2023-11-24T07:57:49,2420,42.8014,5.9826,13.2974,4.36036,2453.604,36.2443
2023-11-24T08:00:49,2420,42.8014,5.9826,13.2973,4.36132,2453.641,36.2534
2023-11-24T08:03:49,2420,42.8014,5.9826,13.2972,4.36151,2453.612,36.2552
2023-11-24T08:06:49,2420,42.8014,5.9826,13.2975,4.36089,2453.627,36.2492
2023-11-24T08:09:49,2420,42.8014,5.9826,13.2972,4.36030,2453.604,36.2439
2023-11-24T08:12:49,2420,42.8014,5.9826,13.2970,4.36087,2453.627,36.2494
2023-11-24T08:15:49,2420,42.8014,5.9826,13.2975,4.36120,2453.582,36.2521
2023-11-24T08:18:49,2420,42.8014,5.9826,13.2973,4.36174,2453.627,36.2572
2023-11-24T08:21:50,2420,42.8014,5.9826,13.2975,4.36218,2453.627,36.2613
2023-11-24T08:24:49,2420,42.8014,5.9826,13.2972,4.36168,2453.627,36.2568
2023-11-24T08:27:49,2420,42.8014,5.9826,13.2970,4.36156,2453.619,36.2558
2023-11-24T08:30:49,2420,42.8014,5.9826,13.2973,4.36179,2453.559,36.2578
2023-11-24T08:33:49,2420,42.8014,5.9826,13.2970,4.36233,2453.582,36.2630
2023-11-24T08:36:49,2420,42.8014,5.9826,13.2970,4.36187,2453.559,36.2588
2023-11-24T08:39:49,2420,42.8014,5.9826,13.2970,4.36209,2453.582,36.2609
2023-11-24T08:42:49,2420,42.8014,5.9826,13.2970,4.36269,2453.582,36.2664
2023-11-24T08:45:49,2420,42.8014,5.9826,13.2966,4.36209,2453.604,36.2612
2023-11-24T08:48:49,2420,42.8014,5.9826,13.2972,4.36187,2453.582,36.2586
2023-11-24T08:51:49,2420,42.8014,5.9826,13.2972,4.36233,2453.582,36.2629
2023-11-24T08:54:49,2420,42.8014,5.9826,13.2971,4.36235,2453.582,36.2632
2023-11-24T08:57:49,2420,42.8014,5.9826,13.2970,4.36220,2453.604,36.2618
2023-11-24T09:00:49,2420,42.8014,5.9826,13.2975,4.36264,2453.582,36.2655
2023-11-24T09:03:49,2420,42.8014,5.9826,13.2973,4.36240,2453.559,36.2634
2023-11-24T09:06:49,2420,42.8014,5.9826,13.2970,4.36276,2453.582,36.2671
2023-11-24T09:09:49,2420,42.8014,5.9826,13.2978,4.36265,2453.582,36.2654
2023-11-24T09:12:49,2420,42.8014,5.9826,13.2971,4.36295,2453.582,36.2688
2023-11-24T09:15:49,2420,42.8014,5.9826,13.2972,4.36306,2453.582,36.2697
2023-11-24T09:18:49,2420,42.8014,5.9826,13.2972,4.36269,2453.582,36.2663
2023-11-24T09:21:49,2420,42.8014,5.9826,13.2973,4.36252,2453.559,36.2646
2023-11-24T09:24:49,2420,42.8014,5.9826,13.2978,4.36290,2453.582,36.2677
2023-11-24T09:27:49,2420,42.8014,5.9826,13.2975,4.36304,2453.582,36.2693
2023-11-24T09:30:49,2420,42.8014,5.9826,13.2973,4.36252,2453.582,36.2646
2023-11-24T09:33:49,2420,42.8014,5.9826,13.2971,4.36259,2453.559,36.2654
2023-11-24T09:36:49,2420,42.8014,5.9826,13.2970,4.36277,2453.537,36.2672
2023-11-24T09:39:49,2420,42.8014,5.9826,13.2973,4.36298,2453.559,36.2688
2023-11-24T09:42:49,2420,42.8014,5.9826,13.2976,4.36269,2453.537,36.2659
2023-11-24T09:45:49,2420,42.8014,5.9826,13.2972,4.36300,2453.537,36.2692
2023-11-24T09:48:50,2420,42.8014,5.9826,13.2975,4.36275,2453.559,36.2666
2023-11-24T09:51:49,2420,42.8014,5.9826,13.2970,4.36277,2453.559,36.2672
2023-11-24T09:54:49,2420,42.8014,5.9826,13.2968,4.36273,2453.596,36.2670
2023-11-24T09:57:49,2420,42.8014,5.9826,13.2972,4.36200,2453.582,36.2598
2023-11-24T10:00:49,2420,42.8014,5.9826,13.2973,4.36255,2453.582,36.2649
2023-11-24T10:03:49,2420,42.8014,5.9826,13.2970,4.36223,2453.544,36.2621
2023-11-24T10:06:49,2420,42.8014,5.9826,13.2974,4.36300,2453.537,36.2690
2023-11-24T10:09:49,2420,42.8014,5.9826,13.2970,4.36267,2453.537,36.2663
2023-11-24T10:12:49,2420,42.8014,5.9826,13.2974,4.36314,2453.559,36.2703
2023-11-24T10:15:49,2420,42.8014,5.9826,13.2970,4.36373,2453.559,36.2761
2023-11-24T10:18:49,2420,42.8014,5.9826,13.2971,4.36286,2453.559,36.2679
2023-11-24T10:21:49,2420,42.8014,5.9826,13.2973,4.36238,2453.582,36.2633
2023-11-24T10:24:49,2420,42.8014,5.9826,13.2970,4.36304,2453.537,36.2698
2023-11-24T10:27:49,2420,42.8014,5.9826,13.2972,4.36303,2453.537,36.2694
2023-11-24T10:30:50,2420,42.8014,5.9826,13.2974,4.36297,2453.522,36.2687
2023-11-24T10:33:49,2420,42.8014,5.9826,13.2971,4.36272,2453.559,36.2666
2023-11-24T10:36:49,2420,42.8014,5.9826,13.2970,4.36382,2453.537,36.2770
2023-11-24T10:39:49,2420,42.8014,5.9826,13.2971,4.36329,2453.559,36.2720
2023-11-24T10:42:49,2420,42.8014,5.9826,13.2973,4.36256,2453.537,36.2649
2023-11-24T10:45:49,2420,42.8014,5.9826,13.2975,4.36367,2453.537,36.2752
2023-11-24T10:48:49,2420,42.8014,5.9826,13.2968,4.36273,2453.499,36.2670
2023-11-24T10:51:49,2420,42.8014,5.9826,13.2972,4.36348,2453.537,36.2737
2023-11-24T10:54:49,2420,42.8014,5.9826,13.2972,4.36327,2453.514,36.2717
2023-11-24T10:57:49,2420,42.8014,5.9826,13.2970,4.36310,2453.522,36.2703
2023-11-24T11:00:49,2420,42.8014,5.9826,13.2970,4.36332,2453.551,36.2724
2023-11-24T11:03:50,2420,42.8014,5.9826,13.2971,4.36354,2453.514,36.2743
2023-11-24T11:06:49,2420,42.8014,5.9826,13.2975,4.36300,2453.537,36.2689
2023-11-24T11:09:49,2420,42.8014,5.9826,13.2970,4.36327,2453.537,36.2720
2023-11-24T11:12:49,2420,42.8014,5.9826,13.2974,4.36317,2453.537,36.2705
2023-11-24T11:15:49,2420,42.8014,5.9826,13.2971,4.36340,2453.514,36.2730
2023-11-24T11:18:49,2420,42.8014,5.9826,13.2972,4.36343,2453.514,36.2732
2023-11-24T11:21:49,2420,42.8014,5.9826,13.2970,4.36374,2453.537,36.2763
2023-11-24T11:24:49,2420,42.8014,5.9826,13.2969,4.36392,2453.537,36.2780
2023-11-24T11:27:49,2420,42.8014,5.9826,13.2973,4.36394,2453.491,36.2779
2023-11-24T11:30:49,2420,42.8014,5.9826,13.2968,4.36349,2453.559,36.2741
2023-11-24T11:33:49,2420,42.8014,5.9826,13.2973,4.36392,2453.514,36.2776
2023-11-24T11:36:49,2420,42.8014,5.9826,13.2970,4.36309,2453.514,36.2703
2023-11-24T11:39:49,2420,42.8014,5.9826,13.2973,4.36332,2453.537,36.2720
2023-11-24T11:42:49,2420,42.8014,5.9826,13.2969,4.36409,2453.537,36.2797
2023-11-24T11:45:49,2420,42.8014,5.9826,13.2972,4.36365,2453.537,36.2753
2023-11-24T11:48:49,2420,42.8014,5.9826,13.2972,4.36400,2453.537,36.2786
2023-11-24T11:51:49,2420,42.8014,5.9826,13.2968,4.36340,2453.522,36.2733
2023-11-24T11:54:50,2420,42.8014,5.9826,13.2972,4.36419,2453.514,36.2804
2023-11-24T11:57:49,2420,42.8014,5.9826,13.2970,4.36418,2453.537,36.2804
2023-11-24T12:00:49,2420,42.8014,5.9826,13.2970,4.36653,2453.537,36.3024
2023-11-24T12:03:49,2420,42.8014,5.9826,13.2973,4.36877,2453.559,36.3231
2023-11-24T12:06:49,2420,42.8014,5.9826,13.2972,4.36890,2453.514,36.3244
2023-11-24T12:09:49,2420,42.8014,5.9826,13.2970,4.37017,2453.537,36.3364
2023-11-24T12:12:49,2420,42.8014,5.9826,13.2975,4.37344,2453.537,36.3666
2023-11-24T12:15:49,2420,42.8014,5.9826,13.2970,4.37744,2453.514,36.4044
2023-11-24T12:18:49,2420,42.8014,5.9826,13.2974,4.38368,2453.537,36.4624
2023-11-24T12:21:49,2420,42.8014,5.9826,13.2973,4.38627,2453.537,36.4868
2023-11-24T12:24:49,2420,42.8014,5.9826,13.2973,4.38637,2453.514,36.4877
2023-11-24T12:27:49,2420,42.8014,5.9826,13.2973,4.38617,2453.537,36.4858
2023-11-24T12:30:49,2420,42.8014,5.9826,13.2973,4.38645,2453.537,36.4885
2023-11-24T12:33:49,2420,42.8014,5.9826,13.2968,4.38613,2453.522,36.4859
2023-11-24T12:36:49,2420,42.8014,5.9826,13.2974,4.38562,2453.574,36.4806
2023-11-24T12:39:49,2420,42.8014,5.9826,13.2973,4.38583,2453.544,36.4827
2023-11-24T12:42:49,2420,42.8014,5.9826,13.2968,4.38599,2453.559,36.4846
2023-11-24T12:45:49,2420,42.8014,5.9826,13.2973,4.38616,2453.537,36.4857
2023-11-24T12:48:49,2420,42.8014,5.9826,13.2975,4.38647,2453.514,36.4885
2023-11-24T12:51:49,2420,42.8014,5.9826,13.2973,4.38504,2453.559,36.4753
2023-11-24T12:54:49,2420,42.8014,5.9826,13.2973,4.38529,2453.544,36.4775
2023-11-24T12:57:50,2420,42.8014,5.9826,13.2972,4.38552,2453.559,36.4799
2023-11-24T13:00:49,2420,42.8014,5.9826,13.2970,4.38560,2453.559,36.4808
2023-11-24T13:03:49,2420,42.8014,5.9826,13.2973,4.38481,2453.544,36.4731
2023-11-24T13:06:49,2420,42.8014,5.9826,13.2974,4.38494,2453.574,36.4742
2023-11-24T13:09:49,2420,42.8014,5.9826,13.2971,4.38508,2453.567,36.4758
2023-11-24T13:12:49,2420,42.8014,5.9826,13.2970,4.38458,2453.559,36.4713
2023-11-24T13:15:49,2420,42.8014,5.9826,13.2973,4.38490,2453.574,36.4739
2023-11-24T13:18:49,2420,42.8014,5.9826,13.2966,4.38550,2453.559,36.4802
2023-11-24T13:21:49,2420,42.8014,5.9826,13.2970,4.38536,2453.582,36.4785
2023-11-24T13:24:49,2420,42.8014,5.9826,13.2972,4.38498,2453.559,36.4748
2023-11-24T13:27:49,2420,42.8014,5.9826,13.2973,4.38515,2453.559,36.4763
2023-11-24T13:30:49,2420,42.8014,5.9826,13.2972,4.38540,2453.582,36.4788
2023-11-24T13:33:49,2420,42.8014,5.9826,13.2973,4.38496,2453.559,36.4745
2023-11-24T13:36:49,2420,42.8014,5.9826,13.2970,4.38484,2453.582,36.4737
2023-11-24T13:39:49,2420,42.8014,5.9826,13.2970,4.38445,2453.559,36.4700
2023-11-24T13:42:49,2420,42.8014,5.9826,13.2973,4.38413,2453.559,36.4667
2023-11-24T13:45:49,2420,42.8014,5.9826,13.2964,4.38496,2453.590,36.4753
2023-11-24T13:48:49,2420,42.8014,5.9826,13.2968,4.38496,2453.582,36.4749
2023-11-24T13:51:49,2420,42.8014,5.9826,13.2971,4.38508,2453.604,36.4758
2023-11-24T13:54:49,2420,42.8014,5.9826,13.2975,4.38498,2453.582,36.4746
2023-11-24T13:57:49,2420,42.8014,5.9826,13.2975,4.38514,2453.582,36.4761
2023-11-24T14:00:49,2420,42.8014,5.9826,13.2971,4.38437,2453.567,36.4692
2023-11-24T14:03:49,2420,42.8014,5.9826,13.2975,4.38432,2453.590,36.4683
2023-11-24T14:06:49,2420,42.8014,5.9826,13.2973,4.38406,2453.604,36.4661
2023-11-24T14:09:49,2420,42.8014,5.9826,13.2973,4.38472,2453.582,36.4722
2023-11-24T14:12:49,2420,42.8014,5.9826,13.2970,4.38494,2453.627,36.4745
2023-11-24T14:15:49,2420,42.8014,5.9826,13.2973,4.38466,2453.612,36.4716
2023-11-24T14:18:50,2420,42.8014,5.9826,13.2972,4.38524,2453.604,36.4773
2023-11-24T14:21:49,2420,42.8014,5.9826,13.2975,4.38527,2453.604,36.4773
2023-11-24T14:24:49,2420,42.8014,5.9826,13.2975,4.38533,2453.604,36.4778
2023-11-24T14:27:49,2420,42.8014,5.9826,13.2973,4.38542,2453.612,36.4788
2023-11-24T14:30:49,2420,42.8014,5.9826,13.2974,4.38542,2453.596,36.4787
2023-11-24T14:33:49,2420,42.8014,5.9826,13.2974,4.38529,2453.604,36.4775
2023-11-24T14:36:49,2420,42.8014,5.9826,13.2975,4.38479,2453.612,36.4727
2023-11-24T14:39:49,2420,42.8014,5.9826,13.2972,4.38462,2453.582,36.4714
2023-11-24T14:42:49,2420,42.8014,5.9826,13.2972,4.38526,2453.627,36.4774
2023-11-24T14:45:49,2420,42.8014,5.9826,13.2976,4.38491,2453.649,36.4737
2023-11-24T14:48:49,2420,42.8014,5.9826,13.2972,4.38561,2453.649,36.4806
2023-11-24T14:51:49,2420,42.8014,5.9826,13.2978,4.38516,2453.612,36.4759
2023-11-24T14:54:49,2420,42.8014,5.9826,13.2973,4.38540,2453.649,36.4785
2023-11-24T14:57:49,2420,42.8014,5.9826,13.2973,4.38548,2453.627,36.4793
2023-11-24T15:00:50,2420,42.8014,5.9826,13.2973,4.38546,2453.649,36.4791
2023-11-24T15:03:49,2420,42.8014,5.9826,13.2972,4.38427,2453.649,36.4681
2023-11-24T15:06:49,2420,42.8014,5.9826,13.2975,4.38358,2453.649,36.4614
2023-11-24T15:09:49,2420,42.8014,5.9826,13.2973,4.38452,2453.627,36.4704
2023-11-24T15:12:49,2420,42.8014,5.9826,13.2973,4.38551,2453.672,36.4795
2023-11-24T15:15:49,2420,42.8014,5.9826,13.2970,4.38519,2453.627,36.4769
2023-11-24T15:18:49,2420,42.8014,5.9826,13.2975,4.38516,2453.649,36.4761
2023-11-24T15:21:49,2420,42.8014,5.9826,13.2975,4.38376,2453.649,36.4631
2023-11-24T15:24:49,2420,42.8014,5.9826,13.2970,4.38390,2453.627,36.4649
2023-11-24T15:27:49,2420,42.8014,5.9826,13.2976,4.38407,2453.672,36.4658
2023-11-24T15:30:50,2420,42.8014,5.9826,13.2971,4.38457,2453.649,36.4710
2023-11-24T15:33:49,2420,42.8014,5.9826,13.2974,4.38510,2453.649,36.4757
2023-11-24T15:36:49,2420,42.8014,5.9826,13.2970,4.38453,2453.672,36.4708
2023-11-24T15:39:49,2420,42.8014,5.9826,13.2974,4.38490,2453.649,36.4739
2023-11-24T15:42:49,2420,42.8014,5.9826,13.2971,4.38488,2453.672,36.4739
2023-11-24T15:45:49,2420,42.8014,5.9826,13.2974,4.38341,2453.672,36.4599
2023-11-24T15:48:49,2420,42.8014,5.9826,13.2975,4.38443,2453.672,36.4693
2023-11-24T15:51:49,2420,42.8014,5.9826,13.2977,4.38508,2453.672,36.4752
2023-11-24T15:54:49,2420,42.8014,5.9826,13.2973,4.38473,2453.672,36.4723
2023-11-24T15:57:49,2420,42.8014,5.9826,13.2971,4.38463,2453.649,36.4715
2023-11-24T16:00:49,2420,42.8014,5.9826,13.2971,4.38339,2453.695,36.4599
2023-11-24T16:03:49,2420,42.8014,5.9826,13.2972,4.38359,2453.672,36.4618